This is the latest recevied weather packets stored in our database for station/object DL9GJ-4. If no packets are shown the sender has not sent any weather packets the latest 10 day(s).
| Time | Temp. | Humidity | Pressure | Rain* | Wind** | Luminosity | Snow |
|---|---|---|---|---|---|---|---|
| 1787397143 | 16.67° C | 33% | 1018 hPa | 0 mm | - | - | - |
| 1787396780 | 16.11° C | 34% | 1018 hPa | 0 mm | - | - | - |
| 1787396051 | 15° C | 36% | 1018 hPa | 0 mm | - | - | - |
| 1787395690 | 15° C | 35% | 1018 hPa | 0 mm | - | - | - |
| 1787395329 | 16.11° C | 35% | 1018 hPa | 0 mm | - | - | - |
| 1787394969 | 16.11° C | 40% | 1018 hPa | 0 mm | - | - | - |
| 1787394606 | 15.56° C | 42% | 1018 hPa | 0 mm | - | - | - |
| 1787394285 | 15° C | 38% | 1018 hPa | 0 mm | - | - | - |
| 1787394245 | 15° C | 38% | 1018 hPa | 0 mm | - | - | - |
| 1787393159 | 15.56° C | 37% | 1018 hPa | 0 mm | - | - | - |
| 1787392428 | 15.56° C | 34% | 1018 hPa | 0 mm | - | - | - |
| 1787391342 | 16.67° C | 33% | 1018 hPa | 0 mm | - | - | - |
| 1787390978 | 16.67° C | 29% | 1018 hPa | 0 mm | - | - | - |
| 1787390613 | 17.22° C | 29% | 1018 hPa | 0 mm | - | - | - |
| 1787390246 | 17.22° C | 33% | 1018 hPa | 0 mm | - | - | - |
| 1787389884 | 16.67° C | 34% | 1018 hPa | 0 mm | - | - | - |
| 1787389158 | 15.56° C | 35% | 1018 hPa | 0 mm | - | - | - |
| 1787388794 | 15.56° C | 35% | 1018 hPa | 0 mm | - | - | - |
| 1787388067 | 15° C | 34% | 1018 hPa | 0 mm | - | - | - |
| 1787387340 | 15.56° C | 34% | 1017 hPa | 0 mm | - | - | - |
| 1787385892 | 15° C | 43% | 1017 hPa | 0 mm | - | - | - |
| 1787385526 | 14.44° C | 39% | 1017 hPa | 0 mm | - | - | - |
| 1787385164 | 14.44° C | 42% | 1017 hPa | 0 mm | - | - | - |
| 1787384802 | 14.44° C | 54% | 1017 hPa | 0 mm | - | - | - |
| 1787384473 | 13.89° C | 64% | 1017 hPa | 0 mm | - | - | - |
* Rain latest hour (hover to see other rain measurements)
** Current wind speed in m/s (hover to see current wind gust speed)